TITAN 3A DEB (TRUSS), 1000

Orbit data source: Space-Track

TITAN 3A DEB (TRUSS), 1000 is space debris in LEO originally from a launch on Thu, 11 Feb 1965 UTC launched from the Air Force Eastern Test Range (AFETR). Debris objects in space refer to the collection of defunct objects orbiting the Earth. Examples of debris include non-operational satellites, rocket bodies, and fragments generated from explosions, collisions, or faulty payload assembly.

Loading next visibility...
Identifier
1000, 1965-008B
Orbit
LEO
Country
Flag of USUS
Related business
Manufacturer
Martin Marietta
Mission
Spacecraft
Bus & Motor
TRANSTAGE, Unknown motor
Mass
1,950 kg wet, 1,950 kg dry
Launch date (UTC)
1965-02-11 (61 years ago)
Launch vehicle
Unknown
Launch site
Air Force Eastern Test Range (AFETR)
Object type
Payload
Rocket body
Debris
Shape & HBR
Unknown
Radar Cross Section
Large (>1 m²)

Expand to show TLE details & history
Last TLE update: 19 hours ago

TLE from 19 hours ago
0 TITAN 3A DEB (TRUSS)
1 01000U 65008B   25352.64485620 -.00000005  00000-0 -17190-2 0  9999
2 01000  32.1468  43.9242 0011581  80.4291 279.7514  9.88890961199485
Epoch: 2025-12-18T15:28Z
TLE epoch observation values (Epoch: 2025-12-18T15:28:35.575Z)
Latitude
-0.00004°
Longitude
84.27851°
Altitude
2,787.635 km
Speed
6.597 km/s
True Right ascension
02h 55m 41s
True Declination
0° 00' 00"
Sunlit
Object was in daylight at epoch
Visualization orbit readout
Latitude
Unknown
Longitude
Unknown
Altitude
Unknown
Speed
Unknown
Apparent Right ascension
Unknown
Apparent Declination
Unknown
Sunlit
N/A
Visualization observer readout
Local Sidereal Time
08:58:26
Azimuth
Unknown
Elevation
Unknown
Doppler factor
Unknown
Orbital elements
Apogee altitude
2,803.852 km
Perigee altitude
2,782.609 km
Semi-major axis
9,171.367 km
Eccentricity
0.00116
Inclination
32.1468°
RAAN
43.9242°
Arg. of periapsis
80.4291°
True anomaly
279.62058°
Mean anomaly
279.7514°
Eccentric anomaly
279.68599°
Mean motion
2.47111 °/min
Orbital period
145.68 mins
BSTAR
-0.001719
Loading maneuver chart data...
Computing Atmospheric mass density...
Loading historical data...
Loading historical data...
Loading historical data...
Loading historical data...
Loading historical data...
Loading historical data...
Loading historical data...
Other satellites on launch #8 in the year 1965 (1965-02-11 UTC)

Documentation

Showing up to 5 results
|